Location: Casilda
(33.0440°S, 61.1680°W)
Time: 14:11:00
(UTC-03:00)

ISS - Pass Details

Date: 19 January 2025
Orbit: 415 x 418 km, 51.6° (Epoch: 13 January)

Event Time Altitude Azimuth Distance (km) Brightness Sun altitude
Exits shadow 03:51:52 15° 77° (ENE) 1,216 -1.2 -24.9°
Drops below altitude 10° 03:53:08 10° 97° (E) 1,508 -0.4 -24.7°
Enters shadow 04:48:45 -71° 312° (NW) 12,497 3.7 -16.3°
Maximum altitude 05:27:19 33° 219° (SW) 729 -2.6 -9.7°
